Location: Unspecified
(0.0000°N, 0.0000°E)
Time: 02:48:43
(UTC+00:00)

Vanguard 2 - Pass Details

Date: 17 December 2018
Orbit: 553 x 2939 km, 32.9° (Epoch: 18 March)

Event Time Altitude Azimuth Distance (km) Brightness Sun altitude
Rises 11:23:07 0° 217° (SW) 5,848 12.2 65.3°
Reaches altitude 10° 11:30:42 10° 192° (SSW) 4,192 11.8 65.8°
Maximum altitude 11:34:49 13° 170° (S) 3,579 11.5 66.1°
Drops below altitude 10° 11:38:19 10° 146° (SE) 3,425 11.3 66.2°
Sets 11:43:00 0° 117° (ESE) 3,888 11.3 66.4°
